Location: Bothwell
(41.7170°N, 112.2589°W)
Time: 14:56:19
(UTC+00:00)

Vanguard 2 - Pass Details

Date: 14 May 2026
Orbit: 553 x 2894 km, 32.9° (Epoch: 8 June)

Event Time Altitude Azimuth Distance (km) Brightness Sun altitude
Rises 12:13:02 0° 262° (W) 6,732 11.7 -0.4°
Reaches altitude 10° 12:17:42 10° 259° (W) 5,679 11.3 0.4°
Maximum altitude 12:34:12 59° 187° (S) 2,654 10.2 3.3°
Drops below altitude 10° 12:45:38 10° 111° (ESE) 4,072 12.1 5.2°
Sets 12:48:24 0° 107° (ESE) 4,788 12.5 5.7°
